Location: Newark
(21.1200°N, 73.4000°E)
Time: 05:07:58
(UTC+00:00)

Explorer 11/Cluster Stage 4 - Pass Details

Date: 29 January 2020
Orbit: 467 x 1259 km, 28.8° (Epoch: 19 February)

Event Time Altitude Azimuth Distance (km) Brightness Sun altitude
Rises 07:40:08 0° 266° (W) 3,979 10.3 50.5°
Reaches altitude 10° 07:42:54 10° 270° (W) 3,095 9.8 50.4°
Maximum altitude 07:50:43 59° 348° (NNW) 1,425 8.2 50.1°
Drops below altitude 10° 07:58:49 10° 66° (ENE) 3,200 9.6 49.7°
Sets 08:01:44 0° 71° (ENE) 4,121 10.0 49.5°
